Zurück zum Katalog

ELEKTRO

GOMS

AktivWetterGEO
NORAD 23327·PAYLOAD·🇷🇺 Russia

Gestartet Oct 31, 1994 von Baikonur Cosmodrome

Loading…

TLE

AktuellSource: Space-Track

Epoche: Sep 13, 2026, 17:40 UTC

1 23327U 94069A   26256.73618120 -.00000186  00000-0  00000-0 0  9990
2 23327  14.4465 348.6050 0009482 266.0714  85.2700  1.00274794116754

Verfolge ELEKTRO in Echtzeit mit AllMySat

Download on the App Store